SCP
0 0 0 0 1 1 1 1 1 1 2 4 5 6 6 6 5 4 4 5 6 7 9 9 9 8 7 6 6 8 9 10 10 13 15 15 14 15 14 11 9 9 9 8
0 0 0 0 0 1 1 1 1 1 2 3 5 7 7 6 5 5 5 6 6 8 9 10 10 9 8 6 6 7 8 9 11 14 16 16 16 15 13 11 10 11 10 9
0 0 0 0 0 1 1 1 1 1 2 4 7 9 9 7 6 5 5 6 7 8 10 11 11 10 8 7 7 7 8 10 12 15 17 18 16 14 13 12 13 13 11 10
0 0 0 0 0 1 1 2 2 2 2 4 7 10 9 7 5 4 4 5 8 10 11 11 11 11 9 8 8 9 10 11 12 14 16 16 16 15 15 15 15 15 13 11
1 1 0 0 0 0 1 2 3 3 3 3 6 9 9 6 5 4 3 4 8 12 13 12 12 11 10 9 9 10 10 10 11 12 12 13 15 18 19 19 18 16 14 12
1 1 1 1 1 1 1 3 3 4 4 4 6 8 8 7 5 3 2 3 6 11 14 13 12 12 12 10 10 10 9 9 10 10 8 9 15 21 24 22 20 16 14 13
1 1 1 2 2 1 2 4 5 5 5 6 6 7 8 8 6 4 3 2 5 10 14 13 12 13 13 11 9 10 20 26 19 8 6 7 14 24 28 25 19 16 14 13
2 2 2 3 3 3 4 6 7 6 6 6 6 7 8 8 5 3 3 2 4 10 14 14 13 13 12 10 9 10 27 42 25 7 6 6 13 24 29 24 17 14 13 13
3 3 5 6 6 5 5 5 5 5 5 6 6 7 8 7 5 4 3 3 4 10 17 18 15 13 11 10 9 10 20 25 18 7 6 8 14 23 25 19 13 11 11 12
4 4 6 9 8 6 4 3 3 3 4 6 6 6 6 6 5 4 4 4 5 11 18 19 16 13 11 10 10 10 9 9 7 7 7 9 13 18 18 13 9 8 9 10
4 4 6 9 8 5 3 2 2 3 4 4 4 4 4 5 5 5 5 6 7 11 15 17 15 13 11 9 9 10 10 9 8 7 7 8 10 12 10 8 6 6 7 9
3 3 4 6 6 4 3 3 4 5 5 4 3 3 3 4 4 4 4 5 7 10 14 16 15 13 10 8 9 10 10 9 8 7 7 8 9 8 7 5 4 3 4 5
3 3 3 3 3 4 4 5 5 5 5 4 3 2 3 4 4 3 3 4 6 11 16 18 16 13 10 8 9 10 10 9 8 7 7 7 8 8 7 5 3 2 1 1
4 4 3 3 3 3 4 4 4 4 4 3 3 2 3 4 3 3 2 3 6 11 16 18 16 12 10 8 9 9 8 7 7 7 6 7 7 8 7 7 6 4 2 1
3 3 3 3 4 5 4 3 3 2 2 2 2 2 3 4 3 2 2 3 7 11 15 16 15 12 10 9 8 8 7 6 5 5 5 5 6 6 7 7 8 7 5 4
2 3 3 5 6 6 6 4 3 2 2 2 2 3 3 4 3 3 3 4 7 11 14 16 14 12 10 9 8 7 6 4 3 3 4 4 4 5 6 7 9 9 8 6
2 3 5 6 7 7 6 5 4 3 2 2 3 3 3 3 3 4 5 6 9 12 16 16 14 12 10 8 7 6 5 3 3 3 3 4 4 5 6 7 9 10 9 8
2 3 4 5 6 6 6 5 4 3 3 3 3 3 4 4 4 4 6 8 11 14 16 15 12 10 8 7 6 6 5 4 3 4 4 4 4 5 6 6 6 8 9 8
1 1 2 3 4 5 5 4 4 3 3 3 3 4 4 4 4 5 8 10 11 13 13 11 9 8 7 6 6 5 4 4 4 4 4 4 4 5 5 4 4 5 7 8
0 0 1 1 2 3 4 4 3 3 3 3 3 3 3 3 4 7 9 9 9 10 9 8 7 7 6 5 5 4 4 3 4 4 4 4 4 4 5 4 3 4 5 7
1 1 1 1 2 3 3 3 3 3 3 2 2 2 2 3 5 8 8 7 6 6 6 5 6 6 5 4 4 4 3 3 3 4 4 4 4 5 5 4 3 3 4 4
3 3 2 2 2 3 4 4 3 3 3 2 2 3 3 5 7 7 7 5 4 3 3 3 4 3 3 3 3 3 3 3 3 4 4 4 4 5 4 4 4 3 3 3
5 5 6 5 5 6 6 5 4 4 4 4 4 4 5 6 7 6 5 4 2 2 2 2 1 1 2 3 3 3 3 3 3 4 4 4 4 4 4 4 4 3 3 3
4 5 7 8 8 7 6 6 5 5 5 5 5 5 5 5 5 4 3 2 1 1 1 1 0 1 2 2 2 2 2 2 3 4 4 4 4 4 4 3 3 2 2 2
2 2 4 6 7 7 6 6 6 6 6 6 5 4 4 4 3 3 3 2 1 0 0 0 0 1 1 1 1 1 1 2 2 3 4 4 3 3 2 2 2 2 2 2
1 1 2 2 4 5 5 5 5 5 4 4 4 3 3 3 2 2 2 2 1 1 1 1 0 1 1 1 1 1 1 1 2 2 3 2 2 1 1 1 1 1 1 1
1 1 1 1 2 3 3 4 4 3 3 3 2 2 2 2 1 1 1 1 1 1 1 1 1 1 1 1 1 1 2 1 1 1 1 1 1 1 1 1 1 1 1 1
Wind_Speed
13 12 10 9 9 10 10 7 6 5 2 2 2 4 5 5 4 4 4 4 3 3 3 2 2 3 3 2 2 2 3 3 3 3 3 3 3 3 3 3 3 3 3 2
13 13 11 11 10 9 8 7 5 4 1 3 4 4 5 5 5 5 4 3 2 2 2 2 1 2 3 3 2 2 3 3 3 3 3 3 3 3 3 3 3 3 3 3
11 11 11 12 9 9 6 6 5 4 1 3 3 4 5 5 5 4 3 3 3 1 1 1 1 1 3 3 3 3 2 2 3 3 3 3 3 3 3 3 3 3 3 3
10 11 13 8 6 6 6 4 1 1 0 0 3 4 5 6 5 5 4 3 3 2 1 0 1 1 2 2 2 2 2 2 2 2 3 3 3 3 3 3 3 3 3 3
9 11 12 8 6 5 4 2 1 1 1 3 2 4 5 6 5 4 4 4 3 3 3 2 2 1 2 2 2 2 2 2 2 2 2 3 3 3 2 2 3 3 3 4
9 11 10 5 4 4 5 3 2 3 3 3 3 1 2 4 5 4 4 4 4 4 3 2 2 1 2 3 3 3 3 3 3 3 3 3 3 3 3 3 3 3 4 4
11 12 6 4 5 4 5 1 5 4 4 2 3 3 2 3 4 3 3 3 4 4 3 3 2 2 0 1 1 2 3 3 3 3 3 3 3 3 3 4 4 4 4 4
9 11 5 5 3 3 4 4 5 5 4 4 4 4 3 3 3 3 3 3 4 3 3 3 2 1 1 1 1 1 1 2 3 3 3 3 3 4 4 5 5 5 5 5
4 2 2 6 6 6 5 5 5 5 4 4 4 3 3 3 2 2 3 3 3 3 2 2 2 1 2 1 1 1 1 2 3 3 3 3 4 5 4 4 4 4 4 5
3 3 2 4 4 5 5 5 5 6 5 5 5 4 4 3 2 3 3 3 3 3 3 2 3 2 2 2 1 1 2 3 3 3 3 3 3 4 4 4 4 4 4 4
5 4 2 1 3 4 5 5 6 6 5 5 4 4 4 3 2 2 3 4 3 3 3 3 2 2 2 2 2 2 2 3 4 4 4 3 3 3 4 3 3 3 3 2
4 3 3 2 2 4 4 5 5 5 6 5 5 5 4 4 3 3 3 3 3 3 4 4 3 2 2 2 2 2 3 3 3 3 3 3 4 3 3 3 4 5 4 3
3 4 4 4 4 4 5 5 5 6 6 6 5 5 5 4 3 3 4 4 4 4 3 3 3 3 2 2 2 3 3 3 3 3 3 3 3 3 3 3 3 3 4 5
4 4 4 5 5 5 5 6 6 6 6 5 5 5 5 4 4 4 4 4 5 4 3 3 3 3 3 3 3 3 4 4 4 4 4 3 4 4 4 4 4 4 5 7
3 3 4 5 6 6 5 5 6 6 6 5 5 5 5 4 4 4 4 5 5 4 3 3 3 3 3 3 4 4 4 4 4 4 4 4 4 4 4 4 3 3 3 4
4 4 4 5 6 7 7 6 6 7 6 6 5 5 5 4 4 4 5 4 4 5 3 3 3 3 3 4 4 4 4 5 5 5 5 5 4 4 3 3 3 3 3 2
5 5 5 5 6 7 7 7 6 7 6 6 5 5 5 5 5 5 5 5 4 3 3 3 3 3 3 4 5 5 5 5 5 6 5 4 4 4 3 3 3 2 3 2
4 4 5 5 6 6 7 7 7 7 6 6 6 5 4 4 5 5 4 4 3 3 3 3 3 3 3 4 4 5 5 5 4 5 4 4 4 3 4 4 4 4 3 3
4 5 5 6 6 6 6 6 6 6 6 6 6 5 4 4 4 4 4 3 3 4 3 3 3 4 4 3 4 4 5 6 5 4 3 3 4 4 4 4 4 3 3 3
4 5 5 6 7 6 5 5 6 6 6 6 5 5 5 4 4 4 3 3 3 3 2 2 3 3 3 2 4 5 6 6 5 4 3 4 4 4 4 4 4 3 3 3
5 5 5 5 6 5 5 5 5 6 5 5 5 5 4 4 4 3 3 3 2 1 3 3 2 2 2 3 5 5 5 5 5 4 4 3 4 4 4 4 3 3 3 2
5 5 6 6 5 5 4 4 5 6 5 4 4 4 4 4 3 2 2 2 2 1 2 2 1 1 3 5 5 5 5 5 4 4 4 3 3 3 4 4 4 3 3 1
5 5 6 6 5 5 5 4 4 4 4 4 4 4 3 3 2 2 2 1 1 1 3 2 1 1 3 4 4 4 5 4 4 3 3 3 3 3 3 4 3 3 3 2
5 5 6 6 4 4 4 4 4 3 4 3 3 2 2 2 1 1 1 0 1 2 2 1 0 2 3 3 3 3 4 3 3 3 4 3 3 3 2 2 3 3 3 3
4 5 5 5 4 4 4 4 3 3 3 2 2 1 1 1 1 1 1 1 0 1 1 1 2 2 3 3 3 3 2 2 3 3 4 4 4 3 3 3 3 3 3 3
4 4 3 4 3 3 3 2 2 2 2 2 2 1 1 1 1 1 1 1 1 1 2 1 1 2 2 2 2 2 2 2 2 3 4 4 4 4 4 3 4 3 3 3
4 3 2 3 3 3 3 2 2 2 2 2 2 2 1 1 1 1 1 1 1 1 1 1 1 1 1 2 2 2 2 2 2 2 3 3 3 3 4 4 3 2 2 3
Wind_Direction
272 273 272 266 255 255 261 272 277 283 252 143 109 94 90 83 84 88 93 94 93 104 108 122 130 157 167 170 179 170 157 169 165 168 167 168 171 168 167 175 175 172 186 194
269 268 264 268 264 265 267 270 268 260 283 76 75 92 98 84 73 66 60 54 64 75 107 139 164 169 172 179 179 165 168 176 165 168 170 180 180 181 179 178 171 176 194 204
268 269 263 252 254 260 265 276 274 269 123 93 82 71 90 85 73 59 50 38 31 44 114 143 176 161 168 174 174 171 171 175 167 173 179 191 197 184 184 185 179 189 200 203
265 268 257 256 268 267 258 269 303 353 157 163 123 104 94 77 66 53 45 38 23 2 360 314 311 169 155 158 167 169 168 176 173 177 186 196 201 194 193 188 191 201 213 221
259 257 256 257 253 253 248 255 14 350 33 6 80 102 99 80 66 56 42 31 20 354 352 9 331 299 144 172 173 186 198 188 180 185 193 202 207 203 204 201 208 210 213 223
255 260 263 277 292 284 262 227 35 52 50 2 320 224 96 72 57 53 39 20 6 359 6 8 350 346 170 184 188 204 209 197 186 192 198 208 213 206 210 209 218 226 222 217
246 256 261 310 317 294 258 36 34 40 51 34 0 16 65 65 53 45 29 12 4 4 7 4 350 3 336 205 218 229 206 193 190 199 213 214 206 204 211 219 224 230 229 223
245 252 257 350 337 10 34 35 29 27 37 30 15 13 47 50 37 30 7 359 356 3 358 358 357 353 299 286 306 315 241 208 202 204 230 230 216 222 221 223 226 227 228 231
281 272 46 44 50 51 36 24 14 12 13 12 355 351 14 14 18 1 350 354 348 343 345 341 344 327 300 308 307 284 248 231 235 222 221 233 226 226 224 224 232 236 230 232
287 286 7 47 55 39 22 7 358 359 355 354 352 345 343 349 355 345 348 337 329 323 325 330 324 316 301 296 277 246 245 227 232 236 236 233 229 229 226 227 228 235 236 241
255 260 289 355 8 2 352 344 351 353 345 340 332 320 322 332 344 342 338 332 331 329 323 313 310 320 304 289 277 268 259 243 237 235 232 226 226 235 240 240 234 234 248 253
260 277 289 310 347 336 329 330 339 336 327 323 319 315 315 312 317 314 315 319 315 312 311 310 310 312 313 301 296 285 282 264 252 252 246 243 237 242 252 249 236 231 231 235
324 319 329 333 333 332 323 322 328 325 319 315 317 314 307 307 311 312 310 305 304 294 296 298 295 299 317 320 310 294 286 281 272 269 257 253 255 248 249 249 253 254 244 235
0 352 328 319 318 324 325 327 322 317 317 309 309 309 300 296 297 299 301 304 305 300 299 303 306 316 327 324 315 300 288 282 272 264 264 260 260 256 251 240 235 240 245 237
323 311 297 304 308 310 310 307 305 305 301 302 309 308 296 290 291 296 297 294 297 297 301 308 309 310 314 309 305 299 294 293 289 280 278 273 263 260 258 255 251 246 239 229
298 291 287 289 293 296 297 296 297 298 297 301 303 305 301 299 296 293 289 286 286 286 287 286 290 299 298 295 292 284 281 276 277 277 273 271 269 269 267 260 260 264 261 263
291 292 294 292 290 293 297 296 295 294 297 300 299 299 295 294 292 290 288 284 277 280 292 288 283 287 287 287 285 282 280 271 272 273 267 268 267 265 270 266 263 267 273 257
281 287 292 291 297 301 302 301 302 300 298 295 296 293 290 287 284 290 291 291 289 287 289 286 287 288 289 291 288 288 288 284 279 284 288 294 291 288 287 282 278 271 265 244
281 283 289 296 295 296 297 299 300 299 301 299 297 297 294 288 289 288 281 277 280 276 278 283 284 285 286 294 302 287 284 284 283 283 286 286 279 279 277 276 279 283 280 266
294 294 299 299 299 295 289 292 299 300 299 295 293 293 289 285 282 283 283 272 272 285 301 311 296 289 288 312 301 285 280 280 284 287 290 288 283 279 283 282 280 278 275 269
315 311 306 300 302 304 302 306 310 306 302 300 297 292 289 290 280 270 271 273 287 317 295 269 269 292 300 299 278 279 286 288 291 291 289 288 289 292 290 291 297 300 293 290
320 316 310 304 302 303 311 314 308 302 298 298 299 294 286 278 272 261 265 273 278 308 277 277 288 316 319 300 289 294 297 294 290 292 295 300 303 310 315 316 308 301 296 304
319 318 313 303 292 293 302 307 300 299 295 290 287 286 288 290 285 283 282 292 305 291 291 311 331 320 303 286 290 295 293 294 299 298 303 309 309 312 316 315 314 317 328 340
303 305 306 302 293 290 293 294 290 287 287 280 274 283 282 282 282 278 294 311 347 291 306 23 136 279 273 279 289 292 297 311 324 326 323 318 316 318 325 335 334 336 346 355
287 293 299 301 293 284 278 277 285 288 294 313 313 342 324 341 326 335 348 6 211 271 299 189 214 255 277 293 298 302 311 321 322 323 329 333 330 333 348 352 349 358 1 360
274 272 281 289 292 291 291 303 311 306 309 320 332 331 332 345 329 324 319 325 328 297 300 276 238 245 280 293 304 320 329 336 336 339 346 350 343 342 355 359 356 4 360 359
267 268 266 270 279 286 295 302 310 322 333 339 335 338 328 328 353 351 338 332 355 327 315 323 342 343 331 338 353 3 0 0 1 359 355 355 354 349 352 353 354 5 1 360